{"data":{"norad_id":69773,"intl_designator":"2026-151L","name":"KUIPER-00614","alt_names":[],"object_type":"PAYLOAD","status":"ACTIVE","operator":null,"country":"US","launch_date":"2026-07-02","launch_site_code":"AFETR","launch_vehicle":null,"mission":null,"orbit_class":"UNKNOWN","rcs_meters":null,"size_class":null,"mass_kg":null,"dimensions":null,"purposes":[],"wikipedia_slug":null,"has_3d_model":false,"image_url":null,"decayed_at":null,"tle_current":{"epoch":"2026-09-19T22:25:11.582112Z","epoch_age_seconds":74365,"freshness":"FRESH","line1":"1 69773U 26151L   26262.93416183  .00000255  00000+0  62453-4 0  9995","line2":"2 69773  51.8987 231.7507 0001254  48.7787 311.3284 14.79929506 12085","mean_motion":14.79929506,"eccentricity":0.0001254,"inclination_deg":51.8987,"raan_deg":231.7507,"arg_perigee_deg":48.7787,"mean_anomaly_deg":311.3284,"bstar":6.2453e-5,"rev_number":1208,"period_min":97.301931893505,"perigee_km":628.66789535805,"apogee_km":630.4254224197,"semimajor_km":7007.6836588889,"source":"CELESTRAK","updated_at":"2026-09-20T09:00:25.090625Z"}}}